Epoch 1999 July 1.0 TT = JDT 2451360.5
T 1999 July 11.19490 TT MPC
q 0.0491952 (2000.0) P Q
n 0.17125016 Peri. 22.12065 -0.20082361 -0.87351581
a 3.2115552 Node 81.78500 +0.81825112 -0.39846583
e 0.9846818 Incl. 26.61790 +0.53864179 +0.27963390
P 5.76